Location: Newark
(44.9486°N, 4.8961°E)
Time: 07:10:13
(UTC+00:00)

ISS - Pass Details

Date: 29 July 2019
Orbit: 410 x 421 km, 51.6° (Epoch: 24 August)

Event Time Altitude Azimuth Distance (km) Brightness Sun altitude
Rises 19:49:50 0° 295° (WNW) 2,375 2.3 -6.7°
Reaches altitude 10° 19:52:08 10° 308° (NW) 1,508 0.9 -7.0°
Maximum altitude 19:55:07 28° 9° (N) 834 -1.9 -7.4°
Drops below altitude 10° 19:58:04 10° 70° (ENE) 1,501 -1.3 -7.9°
Enters shadow 19:59:37 - 80° (E) 2,074 -0.6 -8.1°
